Location: Eagan
(44.8336°N, 93.1671°W)
Time: 10:31:59
(UTC+00:00)

BlueWalker 3 - Pass Details

Date: 04 October 2024
Orbit: 470 x 481 km, 53.2° (Epoch: 11 November)

Event Time Altitude Azimuth Distance (km) Brightness Sun altitude
Exits shadow 11:42:22 - 236° (SW) 2,103 4.6 -6.6°
Reaches altitude 10° 11:43:32 10° 236° (WSW) 1,624 4.0 -6.4°
Maximum altitude 11:47:12 87° 324° (NW) 475 1.8 -5.8°
Drops below altitude 10° 11:50:53 10° 56° (NE) 1,635 5.5 -5.1°
Sets 11:53:03 0° 57° (ENE) 2,517 6.5 -4.7°
